Year,Month,Day,Hour,Minute,Value (Times are PST for windgust in km/hr)
2017,04,08,00,00,22.50
2017,04,08,00,01,29.00
2017,04,08,00,02,32.20
2017,04,08,00,03,35.40
2017,04,08,00,04,30.60
2017,04,08,00,05,33.80
2017,04,08,00,06,38.60
2017,04,08,00,07,35.40
2017,04,08,00,08,35.40
2017,04,08,00,09,29.00
2017,04,08,00,10,29.00
2017,04,08,00,11,22.50
2017,04,08,00,12,29.00
2017,04,08,00,13,27.40
2017,04,08,00,14,24.20
2017,04,08,00,15,25.70
2017,04,08,00,16,27.40
2017,04,08,00,17,40.20
2017,04,08,00,18,35.40
2017,04,08,00,19,30.60
2017,04,08,00,20,20.90
2017,04,08,00,21,32.20
2017,04,08,00,22,25.70
2017,04,08,00,23,27.40
2017,04,08,00,24,37.00
2017,04,08,00,25,32.20
2017,04,08,00,26,27.40
2017,04,08,00,27,30.60
2017,04,08,00,28,33.80
2017,04,08,00,29,25.70
2017,04,08,00,30,27.40
2017,04,08,00,31,22.50
2017,04,08,00,32,24.20
2017,04,08,00,33,30.60
2017,04,08,00,34,30.60
2017,04,08,00,35,27.40
2017,04,08,00,36,27.40
2017,04,08,00,37,27.40
2017,04,08,00,38,17.70
2017,04,08,00,39,27.40
2017,04,08,00,40,29.00
2017,04,08,00,41,25.70
2017,04,08,00,42,29.00
2017,04,08,00,43,25.70
2017,04,08,00,44,29.00
2017,04,08,00,45,16.10
2017,04,08,00,46,19.30
2017,04,08,00,47,27.40
2017,04,08,00,48,22.50
2017,04,08,00,49,22.50
2017,04,08,00,50,29.00
2017,04,08,00,51,27.40
2017,04,08,00,52,17.70
2017,04,08,00,53,27.40
2017,04,08,00,54,33.80
2017,04,08,00,55,30.60
2017,04,08,00,56,27.40
2017,04,08,00,57,29.00
2017,04,08,00,58,27.40
2017,04,08,00,59,27.40
2017,04,08,01,00,16.10
2017,04,08,01,01,33.80
2017,04,08,01,02,22.50
2017,04,08,01,03,25.70
2017,04,08,01,04,32.20
2017,04,08,01,05,35.40
2017,04,08,01,06,30.60
2017,04,08,01,07,24.20
2017,04,08,01,08,16.10
2017,04,08,01,09,33.80
2017,04,08,01,10,22.50
2017,04,08,01,11,19.30
2017,04,08,01,12,32.20
2017,04,08,01,13,16.10
2017,04,08,01,14,29.00
2017,04,08,01,15,25.70
2017,04,08,01,16,30.60
2017,04,08,01,17,12.90
2017,04,08,01,18,11.30
2017,04,08,01,19,22.50
2017,04,08,01,20,22.50
2017,04,08,01,21,20.90
2017,04,08,01,22,19.30
2017,04,08,01,23,11.30
2017,04,08,01,24,16.10
2017,04,08,01,25,19.30
2017,04,08,01,26,16.10
2017,04,08,01,27,19.30
2017,04,08,01,28,17.70
2017,04,08,01,29,33.80
2017,04,08,01,30,19.30
2017,04,08,01,31,19.30
2017,04,08,01,32,16.10
2017,04,08,01,33,19.30
2017,04,08,01,34,19.30
2017,04,08,01,35,12.90
2017,04,08,01,36,11.30
2017,04,08,01,37,22.50
2017,04,08,01,38,32.20
2017,04,08,01,39,24.20
2017,04,08,01,40,11.30
2017,04,08,01,41,17.70
2017,04,08,01,42,22.50
2017,04,08,01,43,19.30
2017,04,08,01,44,24.20
2017,04,08,01,45,12.90
2017,04,08,01,46,9.60
2017,04,08,01,47,9.60
2017,04,08,01,48,19.30
2017,04,08,01,49,20.90
2017,04,08,01,50,16.10
2017,04,08,01,51,20.90
2017,04,08,01,52,22.50
2017,04,08,01,53,19.30
2017,04,08,01,54,14.50
2017,04,08,01,55,22.50
2017,04,08,01,56,20.90
2017,04,08,01,57,17.70
2017,04,08,01,58,14.50
2017,04,08,01,59,16.10
2017,04,08,02,00,17.70
2017,04,08,02,01,17.70
2017,04,08,02,02,19.30
2017,04,08,02,03,16.10
2017,04,08,02,04,24.20
2017,04,08,02,05,11.30
2017,04,08,02,06,16.10
2017,04,08,02,07,16.10
2017,04,08,02,08,9.60
2017,04,08,02,09,11.30
2017,04,08,02,10,12.90
2017,04,08,02,11,22.50
2017,04,08,02,12,14.50
2017,04,08,02,13,16.10
2017,04,08,02,14,14.50
2017,04,08,02,15,17.70
2017,04,08,02,16,19.30
2017,04,08,02,17,16.10
2017,04,08,02,18,12.90
2017,04,08,02,19,12.90
2017,04,08,02,20,19.30
2017,04,08,02,21,12.90
2017,04,08,02,22,3.20
2017,04,08,02,23,16.10
2017,04,08,02,24,27.40
2017,04,08,02,25,11.30
2017,04,08,02,26,19.30
2017,04,08,02,27,12.90
2017,04,08,02,28,16.10
2017,04,08,02,29,14.50
2017,04,08,02,30,12.90
2017,04,08,02,31,16.10
2017,04,08,02,32,17.70
2017,04,08,02,33,24.20
2017,04,08,02,34,14.50
2017,04,08,02,35,11.30
2017,04,08,02,36,6.40
2017,04,08,02,37,19.30
2017,04,08,02,38,16.10
2017,04,08,02,39,20.90
2017,04,08,02,40,16.10
2017,04,08,02,41,16.10
2017,04,08,02,42,6.40
2017,04,08,02,43,16.10
2017,04,08,02,44,14.50
2017,04,08,02,45,19.30
2017,04,08,02,46,16.10
2017,04,08,02,47,16.10
2017,04,08,02,48,25.70
2017,04,08,02,49,19.30
2017,04,08,02,50,24.20
2017,04,08,02,51,20.90
2017,04,08,02,52,4.80
2017,04,08,02,53,8.10
2017,04,08,02,54,6.40
2017,04,08,02,55,9.60
2017,04,08,02,56,16.10
2017,04,08,02,57,16.10
2017,04,08,02,58,14.50
2017,04,08,02,59,9.60
2017,04,08,03,00,6.40
2017,04,08,03,01,11.30
2017,04,08,03,02,17.70
2017,04,08,03,03,16.10
2017,04,08,03,04,12.90
2017,04,08,03,05,16.10
2017,04,08,03,06,17.70
2017,04,08,03,07,17.70
2017,04,08,03,08,20.90
2017,04,08,03,09,6.40
2017,04,08,03,10,11.30
2017,04,08,03,11,12.90
2017,04,08,03,12,14.50
2017,04,08,03,13,16.10
2017,04,08,03,14,16.10
2017,04,08,03,15,12.90
2017,04,08,03,16,16.10
2017,04,08,03,17,16.10
2017,04,08,03,18,8.10
2017,04,08,03,19,6.40
2017,04,08,03,20,6.40
2017,04,08,03,21,8.10
2017,04,08,03,22,20.90
2017,04,08,03,23,22.50
2017,04,08,03,24,22.50
2017,04,08,03,25,17.70
2017,04,08,03,26,12.90
2017,04,08,03,27,9.60
2017,04,08,03,28,4.80
2017,04,08,03,29,4.80
2017,04,08,03,30,4.80
2017,04,08,03,31,14.50
2017,04,08,03,32,8.10
2017,04,08,03,33,1.60
2017,04,08,03,34,16.10
2017,04,08,03,35,12.90
2017,04,08,03,36,17.70
2017,04,08,03,37,14.50
2017,04,08,03,38,6.40
2017,04,08,03,39,6.40
2017,04,08,03,40,11.30
2017,04,08,03,41,9.60
2017,04,08,03,42,3.20
2017,04,08,03,43,8.10
2017,04,08,03,44,24.20
2017,04,08,03,45,11.30
2017,04,08,03,46,4.80
2017,04,08,03,47,12.90
2017,04,08,03,48,6.40
2017,04,08,03,49,16.10
2017,04,08,03,50,20.90
2017,04,08,03,51,12.90
2017,04,08,03,52,14.50
2017,04,08,03,53,14.50
2017,04,08,03,54,12.90
2017,04,08,03,55,17.70
2017,04,08,03,56,16.10
2017,04,08,03,57,19.30
2017,04,08,03,58,14.50
2017,04,08,03,59,16.10
2017,04,08,04,00,12.90
2017,04,08,04,01,4.80
2017,04,08,04,02,16.10
2017,04,08,04,03,14.50
2017,04,08,04,04,16.10
2017,04,08,04,05,14.50
2017,04,08,04,06,11.30
2017,04,08,04,07,17.70
2017,04,08,04,08,11.30
2017,04,08,04,09,17.70
2017,04,08,04,10,12.90
2017,04,08,04,11,11.30
2017,04,08,04,12,11.30
2017,04,08,04,13,4.80
2017,04,08,04,14,6.40
2017,04,08,04,15,11.30
2017,04,08,04,16,16.10
2017,04,08,04,17,14.50
2017,04,08,04,18,14.50
2017,04,08,04,19,14.50
2017,04,08,04,20,14.50
2017,04,08,04,21,14.50
2017,04,08,04,22,19.30
2017,04,08,04,23,14.50
2017,04,08,04,24,14.50
2017,04,08,04,25,12.90
2017,04,08,04,26,6.40
2017,04,08,04,27,9.60
2017,04,08,04,28,9.60
2017,04,08,04,29,9.60
2017,04,08,04,30,14.50
2017,04,08,04,31,16.10
2017,04,08,04,32,14.50
2017,04,08,04,33,17.70
2017,04,08,04,34,11.30
2017,04,08,04,35,16.10
2017,04,08,04,36,16.10
2017,04,08,04,37,14.50
2017,04,08,04,38,14.50
2017,04,08,04,39,12.90
2017,04,08,04,40,12.90
2017,04,08,04,41,11.30
2017,04,08,04,42,9.60
2017,04,08,04,43,8.10
2017,04,08,04,44,12.90
2017,04,08,04,45,12.90
2017,04,08,04,46,14.50
2017,04,08,04,47,12.90
2017,04,08,04,48,12.90
2017,04,08,04,49,9.60
2017,04,08,04,50,1.60
2017,04,08,04,51,12.90
2017,04,08,04,52,14.50
2017,04,08,04,53,11.30
2017,04,08,04,54,6.40
2017,04,08,04,55,6.40
2017,04,08,04,56,6.40
2017,04,08,04,57,6.40
2017,04,08,04,58,4.80
2017,04,08,04,59,12.90
2017,04,08,05,00,14.50
2017,04,08,05,01,9.60
2017,04,08,05,02,11.30
2017,04,08,05,03,12.90
2017,04,08,05,04,6.40
2017,04,08,05,05,17.70
2017,04,08,05,06,6.40
2017,04,08,05,07,11.30
2017,04,08,05,08,14.50
2017,04,08,05,09,14.50
2017,04,08,05,10,12.90
2017,04,08,05,11,12.90
2017,04,08,05,12,6.40
2017,04,08,05,13,12.90
2017,04,08,05,14,4.80
2017,04,08,05,15,6.40
2017,04,08,05,16,9.60
2017,04,08,05,17,11.30
2017,04,08,05,18,6.40
2017,04,08,05,19,12.90
2017,04,08,05,20,14.50
2017,04,08,05,21,12.90
2017,04,08,05,22,11.30
2017,04,08,05,23,16.10
2017,04,08,05,24,12.90
2017,04,08,05,25,16.10
2017,04,08,05,26,11.30
2017,04,08,05,27,9.60
2017,04,08,05,28,9.60
2017,04,08,05,29,14.50
2017,04,08,05,30,9.60
2017,04,08,05,31,4.80
2017,04,08,05,32,14.50
2017,04,08,05,33,12.90
2017,04,08,05,34,6.40
2017,04,08,05,35,6.40
2017,04,08,05,36,3.20
2017,04,08,05,37,11.30
2017,04,08,05,38,9.60
2017,04,08,05,39,11.30
2017,04,08,05,40,9.60
2017,04,08,05,41,8.10
2017,04,08,05,42,6.40
2017,04,08,05,43,14.50
2017,04,08,05,44,14.50
2017,04,08,05,45,6.40
2017,04,08,05,46,4.80
2017,04,08,05,47,6.40
2017,04,08,05,48,3.20
2017,04,08,05,49,8.10
2017,04,08,05,50,9.60
2017,04,08,05,51,3.20
2017,04,08,05,52,4.80
2017,04,08,05,53,8.10
2017,04,08,05,54,6.40
2017,04,08,05,55,6.40
2017,04,08,05,56,12.90
2017,04,08,05,57,8.10
2017,04,08,05,58,4.80
2017,04,08,05,59,8.10
2017,04,08,06,00,19.30
2017,04,08,06,01,12.90
2017,04,08,06,02,6.40
2017,04,08,06,03,12.90
2017,04,08,06,04,8.10
2017,04,08,06,05,9.60
2017,04,08,06,06,12.90
2017,04,08,06,07,8.10
2017,04,08,06,08,11.30
2017,04,08,06,09,6.40
2017,04,08,06,10,16.10
2017,04,08,06,11,12.90
2017,04,08,06,12,6.40
2017,04,08,06,13,12.90
2017,04,08,06,14,11.30
2017,04,08,06,15,6.40
2017,04,08,06,16,6.40
2017,04,08,06,17,8.10
2017,04,08,06,18,9.60
2017,04,08,06,19,11.30
2017,04,08,06,20,3.20
2017,04,08,06,21,9.60
2017,04,08,06,22,8.10
2017,04,08,06,23,6.40
2017,04,08,06,24,3.20
2017,04,08,06,25,1.60
2017,04,08,06,26,1.60
2017,04,08,06,27,4.80
2017,04,08,06,28,12.90
2017,04,08,06,29,6.40
2017,04,08,06,30,12.90
2017,04,08,06,31,9.60
2017,04,08,06,32,12.90
2017,04,08,06,33,9.60
2017,04,08,06,34,4.80
2017,04,08,06,35,12.90
2017,04,08,06,36,4.80
2017,04,08,06,37,4.80
2017,04,08,06,38,6.40
2017,04,08,06,39,6.40
2017,04,08,06,40,6.40
2017,04,08,06,41,4.80
2017,04,08,06,42,9.60
2017,04,08,06,43,6.40
2017,04,08,06,44,11.30
2017,04,08,06,45,12.90
2017,04,08,06,46,9.60
2017,04,08,06,47,4.80
2017,04,08,06,48,8.10
2017,04,08,06,49,8.10
2017,04,08,06,50,6.40
2017,04,08,06,51,6.40
2017,04,08,06,52,6.40
2017,04,08,06,53,9.60
2017,04,08,06,54,4.80
2017,04,08,06,56,6.40
2017,04,08,06,57,4.80
2017,04,08,06,58,16.10
2017,04,08,06,59,12.90
2017,04,08,07,00,3.20
2017,04,08,07,01,11.30
2017,04,08,07,02,6.40
2017,04,08,07,03,3.20
2017,04,08,07,04,4.80
2017,04,08,07,05,4.80
2017,04,08,07,06,3.20
2017,04,08,07,07,3.20
2017,04,08,07,08,3.20
2017,04,08,07,09,4.80
2017,04,08,07,10,4.80
2017,04,08,07,11,1.60
2017,04,08,07,12,4.80
2017,04,08,07,13,8.10
2017,04,08,07,14,6.40
2017,04,08,07,15,4.80
2017,04,08,07,16,4.80
2017,04,08,07,17,6.40
2017,04,08,07,18,9.60
2017,04,08,07,19,8.10
2017,04,08,07,20,11.30
2017,04,08,07,21,11.30
2017,04,08,07,22,3.20
2017,04,08,07,23,6.40
2017,04,08,07,24,4.80
2017,04,08,07,25,8.10
2017,04,08,07,26,9.60
2017,04,08,07,27,6.40
2017,04,08,07,28,6.40
2017,04,08,07,29,6.40
2017,04,08,07,30,3.20
2017,04,08,07,32,3.20
2017,04,08,07,33,3.20
2017,04,08,07,34,6.40
2017,04,08,07,35,9.60
2017,04,08,07,36,4.80
2017,04,08,07,37,4.80
2017,04,08,07,38,4.80
2017,04,08,07,39,1.60
2017,04,08,07,40,3.20
2017,04,08,07,41,4.80
2017,04,08,07,42,8.10
2017,04,08,07,43,6.40
2017,04,08,07,44,4.80
2017,04,08,07,45,3.20
2017,04,08,07,46,3.20
2017,04,08,07,47,4.80
2017,04,08,07,48,11.30
2017,04,08,07,49,4.80
2017,04,08,07,51,1.60
2017,04,08,07,58,6.40
2017,04,08,07,59,1.60
2017,04,08,08,00,1.60
2017,04,08,08,01,1.60
2017,04,08,08,02,3.20
2017,04,08,08,08,1.60
2017,04,08,08,09,3.20
2017,04,08,08,10,6.40
2017,04,08,08,11,6.40
2017,04,08,08,12,4.80
2017,04,08,08,13,4.80
2017,04,08,08,14,3.20
2017,04,08,08,15,3.20
2017,04,08,08,16,4.80
2017,04,08,08,17,1.60
2017,04,08,08,29,3.20
2017,04,08,08,30,3.20
2017,04,08,08,31,1.60
2017,04,08,08,32,3.20
2017,04,08,08,33,1.60
2017,04,08,08,34,3.20
2017,04,08,08,35,4.80
2017,04,08,08,36,4.80
2017,04,08,08,37,8.10
2017,04,08,08,38,6.40
2017,04,08,08,39,4.80
2017,04,08,08,40,4.80
2017,04,08,08,41,3.20
2017,04,08,08,42,3.20
2017,04,08,08,43,4.80
2017,04,08,08,44,1.60
2017,04,08,08,45,4.80
2017,04,08,08,46,4.80
2017,04,08,08,47,4.80
2017,04,08,08,48,1.60
2017,04,08,08,49,3.20
2017,04,08,08,50,3.20
2017,04,08,08,51,1.60
2017,04,08,08,52,4.80
2017,04,08,08,53,3.20
2017,04,08,08,54,8.10
2017,04,08,08,55,6.40
2017,04,08,08,56,4.80
2017,04,08,08,57,3.20
2017,04,08,08,58,4.80
2017,04,08,08,59,8.10
2017,04,08,09,00,6.40
2017,04,08,09,01,6.40
2017,04,08,09,02,4.80
2017,04,08,09,03,4.80
2017,04,08,09,04,6.40
2017,04,08,09,05,6.40
2017,04,08,09,06,3.20
2017,04,08,09,07,4.80
2017,04,08,09,08,4.80
2017,04,08,09,09,8.10
2017,04,08,09,10,6.40
2017,04,08,09,11,8.10
2017,04,08,09,12,6.40
2017,04,08,09,13,6.40
2017,04,08,09,14,3.20
2017,04,08,09,15,8.10
2017,04,08,09,16,6.40
2017,04,08,09,17,6.40
2017,04,08,09,18,6.40
2017,04,08,09,19,3.20
2017,04,08,09,20,6.40
2017,04,08,09,21,4.80
2017,04,08,09,22,6.40
2017,04,08,09,23,3.20
2017,04,08,09,24,4.80
2017,04,08,09,25,6.40
2017,04,08,09,26,4.80
2017,04,08,09,27,3.20
2017,04,08,09,28,4.80
2017,04,08,09,29,9.60
2017,04,08,09,30,4.80
2017,04,08,09,31,6.40
2017,04,08,09,32,9.60
2017,04,08,09,33,9.60
2017,04,08,09,34,3.20
2017,04,08,09,35,4.80
2017,04,08,09,36,6.40
2017,04,08,09,37,4.80
2017,04,08,09,38,8.10
2017,04,08,09,39,3.20
2017,04,08,09,47,6.40
2017,04,08,09,48,3.20
2017,04,08,09,49,4.80
2017,04,08,09,50,8.10
2017,04,08,09,51,4.80
2017,04,08,09,53,6.40
2017,04,08,09,54,3.20
2017,04,08,09,55,9.60
2017,04,08,09,56,11.30
2017,04,08,09,57,6.40
2017,04,08,09,58,6.40
2017,04,08,09,59,3.20
2017,04,08,10,00,4.80
2017,04,08,10,01,4.80
2017,04,08,10,02,4.80
2017,04,08,10,03,1.60
2017,04,08,10,04,3.20
2017,04,08,10,05,3.20
2017,04,08,10,06,4.80
2017,04,08,10,07,3.20
2017,04,08,10,08,9.60
2017,04,08,10,09,3.20
2017,04,08,10,10,3.20
2017,04,08,10,11,4.80
2017,04,08,10,12,3.20
2017,04,08,10,13,4.80
2017,04,08,10,14,6.40
2017,04,08,10,15,4.80
2017,04,08,10,16,4.80
2017,04,08,10,17,3.20
2017,04,08,10,18,3.20
2017,04,08,10,19,3.20
2017,04,08,10,20,8.10
2017,04,08,10,21,11.30
2017,04,08,10,22,12.90
2017,04,08,10,23,6.40
2017,04,08,10,24,11.30
2017,04,08,10,25,8.10
2017,04,08,10,26,6.40
2017,04,08,10,27,8.10
2017,04,08,10,28,4.80
2017,04,08,10,29,6.40
2017,04,08,10,30,6.40
2017,04,08,10,31,8.10
2017,04,08,10,32,6.40
2017,04,08,10,33,3.20
2017,04,08,10,34,4.80
2017,04,08,10,35,9.60
2017,04,08,10,36,6.40
2017,04,08,10,37,11.30
2017,04,08,10,38,9.60
2017,04,08,10,39,6.40
2017,04,08,10,40,6.40
2017,04,08,10,41,9.60
2017,04,08,10,42,6.40
2017,04,08,10,43,8.10
2017,04,08,10,44,4.80
2017,04,08,10,45,9.60
2017,04,08,10,46,9.60
2017,04,08,10,47,9.60
2017,04,08,10,48,11.30
2017,04,08,10,49,6.40
2017,04,08,10,50,11.30
2017,04,08,10,51,6.40
2017,04,08,10,52,11.30
2017,04,08,10,53,6.40
2017,04,08,10,54,8.10
2017,04,08,10,55,4.80
2017,04,08,10,56,4.80
2017,04,08,10,57,4.80
2017,04,08,10,58,1.60
2017,04,08,10,59,3.20
2017,04,08,11,00,4.80
2017,04,08,11,01,6.40
2017,04,08,11,02,6.40
2017,04,08,11,03,14.50
2017,04,08,11,04,11.30
2017,04,08,11,05,8.10
2017,04,08,11,06,14.50
2017,04,08,11,07,8.10
2017,04,08,11,08,4.80
2017,04,08,11,09,8.10
2017,04,08,11,10,4.80
2017,04,08,11,11,6.40
2017,04,08,11,12,6.40
2017,04,08,11,13,11.30
2017,04,08,11,14,6.40
2017,04,08,11,15,6.40
2017,04,08,11,16,3.20
2017,04,08,11,17,6.40
2017,04,08,11,18,6.40
2017,04,08,11,19,11.30
2017,04,08,11,20,11.30
2017,04,08,11,21,12.90
2017,04,08,11,22,8.10
2017,04,08,11,23,6.40
2017,04,08,11,24,6.40
2017,04,08,11,25,1.60
2017,04,08,11,26,3.20
2017,04,08,11,27,9.60
2017,04,08,11,28,14.50
2017,04,08,11,29,12.90
2017,04,08,11,30,11.30
2017,04,08,11,31,12.90
2017,04,08,11,32,6.40
2017,04,08,11,33,14.50
2017,04,08,11,34,11.30
2017,04,08,11,35,14.50
2017,04,08,11,36,6.40
2017,04,08,11,37,8.10
2017,04,08,11,38,6.40
2017,04,08,11,39,14.50
2017,04,08,11,40,16.10
2017,04,08,11,41,12.90
2017,04,08,11,42,11.30
2017,04,08,11,43,11.30
2017,04,08,11,44,8.10
2017,04,08,11,45,6.40
2017,04,08,11,46,11.30
2017,04,08,11,47,12.90
2017,04,08,11,48,6.40
2017,04,08,11,49,9.60
2017,04,08,11,50,9.60
2017,04,08,11,51,9.60
2017,04,08,11,52,11.30
2017,04,08,11,53,14.50
2017,04,08,11,54,12.90
2017,04,08,11,55,16.10
2017,04,08,11,56,19.30
2017,04,08,11,57,20.90
2017,04,08,11,58,19.30
2017,04,08,11,59,20.90
2017,04,08,12,00,17.70
2017,04,08,12,01,17.70
2017,04,08,12,02,19.30
2017,04,08,12,03,17.70
2017,04,08,12,04,24.20
2017,04,08,12,05,17.70
2017,04,08,12,06,22.50
2017,04,08,12,07,19.30
2017,04,08,12,08,17.70
2017,04,08,12,09,17.70
2017,04,08,12,10,16.10
2017,04,08,12,11,17.70
2017,04,08,12,12,20.90
2017,04,08,12,13,14.50
2017,04,08,12,14,14.50
2017,04,08,12,15,16.10
2017,04,08,12,16,22.50
2017,04,08,12,17,27.40
2017,04,08,12,18,24.20
2017,04,08,12,19,29.00
2017,04,08,12,20,27.40
2017,04,08,12,21,19.30
2017,04,08,12,22,24.20
2017,04,08,12,23,27.40
2017,04,08,12,24,20.90
2017,04,08,12,25,20.90
2017,04,08,12,26,22.50
2017,04,08,12,27,22.50
2017,04,08,12,28,16.10
2017,04,08,12,29,17.70
2017,04,08,12,30,20.90
2017,04,08,12,31,20.90
2017,04,08,12,32,17.70
2017,04,08,12,33,25.70
2017,04,08,12,34,22.50
2017,04,08,12,35,24.20
2017,04,08,12,36,24.20
2017,04,08,12,37,29.00
2017,04,08,12,38,27.40
2017,04,08,12,39,24.20
2017,04,08,12,40,24.20
2017,04,08,12,41,27.40
2017,04,08,12,42,22.50
2017,04,08,12,43,20.90
2017,04,08,12,44,24.20
2017,04,08,12,45,25.70
2017,04,08,12,46,24.20
2017,04,08,12,47,19.30
2017,04,08,12,48,27.40
2017,04,08,12,49,22.50
2017,04,08,12,50,22.50
2017,04,08,12,51,25.70
2017,04,08,12,52,19.30
2017,04,08,12,53,19.30
2017,04,08,12,54,25.70
2017,04,08,12,55,25.70
2017,04,08,12,56,20.90
2017,04,08,12,57,29.00
2017,04,08,12,58,22.50
2017,04,08,12,59,22.50
2017,04,08,13,00,24.20
2017,04,08,13,01,27.40
2017,04,08,13,02,25.70
2017,04,08,13,03,25.70
2017,04,08,13,04,22.50
2017,04,08,13,05,24.20
2017,04,08,13,06,24.20
2017,04,08,13,07,25.70
2017,04,08,13,08,22.50
2017,04,08,13,09,24.20
2017,04,08,13,10,20.90
2017,04,08,13,11,24.20
2017,04,08,13,12,27.40
2017,04,08,13,13,20.90
2017,04,08,13,14,19.30
2017,04,08,13,15,20.90
2017,04,08,13,16,22.50
2017,04,08,13,17,20.90
2017,04,08,13,18,17.70
2017,04,08,13,19,17.70
2017,04,08,13,20,20.90
2017,04,08,13,21,16.10
2017,04,08,13,22,14.50
2017,04,08,13,23,14.50
2017,04,08,13,24,12.90
2017,04,08,13,25,17.70
2017,04,08,13,26,14.50
2017,04,08,13,27,16.10
2017,04,08,13,28,19.30
2017,04,08,13,29,16.10
2017,04,08,13,30,12.90
2017,04,08,13,31,12.90
2017,04,08,13,32,11.30
2017,04,08,13,33,11.30
2017,04,08,13,34,11.30
2017,04,08,13,35,11.30
2017,04,08,13,36,6.40
2017,04,08,13,37,6.40
2017,04,08,13,38,6.40
2017,04,08,13,39,8.10
2017,04,08,13,40,14.50
2017,04,08,13,41,11.30
2017,04,08,13,42,14.50
2017,04,08,13,43,20.90
2017,04,08,13,44,20.90
2017,04,08,13,45,14.50
2017,04,08,13,46,11.30
2017,04,08,13,47,14.50
2017,04,08,13,48,9.60
2017,04,08,13,49,12.90
2017,04,08,13,50,16.10
2017,04,08,13,51,14.50
2017,04,08,13,52,14.50
2017,04,08,13,53,8.10
2017,04,08,13,54,16.10
2017,04,08,13,55,11.30
2017,04,08,13,56,11.30
2017,04,08,13,57,14.50
2017,04,08,13,58,16.10
2017,04,08,13,59,8.10
2017,04,08,14,00,11.30
2017,04,08,14,01,9.60
2017,04,08,14,02,8.10
2017,04,08,14,03,14.50
2017,04,08,14,04,12.90
2017,04,08,14,05,14.50
2017,04,08,14,06,6.40
2017,04,08,14,07,6.40
2017,04,08,14,08,11.30
2017,04,08,14,09,14.50
2017,04,08,14,10,11.30
2017,04,08,14,11,9.60
2017,04,08,14,12,12.90
2017,04,08,14,13,11.30
2017,04,08,14,14,11.30
2017,04,08,14,15,11.30
2017,04,08,14,16,14.50
2017,04,08,14,17,14.50
2017,04,08,14,18,17.70
2017,04,08,14,19,17.70
2017,04,08,14,20,20.90
2017,04,08,14,21,22.50
2017,04,08,14,22,19.30
2017,04,08,14,23,16.10
2017,04,08,14,24,17.70
2017,04,08,14,25,16.10
2017,04,08,14,26,16.10
2017,04,08,14,27,16.10
2017,04,08,14,28,16.10
2017,04,08,14,29,22.50
2017,04,08,14,30,22.50
2017,04,08,14,31,16.10
2017,04,08,14,32,22.50
2017,04,08,14,33,20.90
2017,04,08,14,34,20.90
2017,04,08,14,35,17.70
2017,04,08,14,36,22.50
2017,04,08,14,37,24.20
2017,04,08,14,38,22.50
2017,04,08,14,39,25.70
2017,04,08,14,40,20.90
2017,04,08,14,41,19.30
2017,04,08,14,42,24.20
2017,04,08,14,43,17.70
2017,04,08,14,44,22.50
2017,04,08,14,45,16.10
2017,04,08,14,46,19.30
2017,04,08,14,47,17.70
2017,04,08,14,48,17.70
2017,04,08,14,49,16.10
2017,04,08,14,50,17.70
2017,04,08,14,51,20.90
2017,04,08,14,52,22.50
2017,04,08,14,53,24.20
2017,04,08,14,54,19.30
2017,04,08,14,55,29.00
2017,04,08,14,56,19.30
2017,04,08,14,57,17.70
2017,04,08,14,58,16.10
2017,04,08,14,59,17.70
2017,04,08,15,00,24.20
2017,04,08,15,01,22.50
2017,04,08,15,02,17.70
2017,04,08,15,03,19.30
2017,04,08,15,04,12.90
2017,04,08,15,05,11.30
2017,04,08,15,06,6.40
2017,04,08,15,07,11.30
2017,04,08,15,08,12.90
2017,04,08,15,09,12.90
2017,04,08,15,10,12.90
2017,04,08,15,11,14.50
2017,04,08,15,12,14.50
2017,04,08,15,13,12.90
2017,04,08,15,14,11.30
2017,04,08,15,15,11.30
2017,04,08,15,16,4.80
2017,04,08,15,17,6.40
2017,04,08,15,18,8.10
2017,04,08,15,19,4.80
2017,04,08,15,20,3.20
2017,04,08,15,21,9.60
2017,04,08,15,22,9.60
2017,04,08,15,23,9.60
2017,04,08,15,24,6.40
2017,04,08,15,25,14.50
2017,04,08,15,26,11.30
2017,04,08,15,27,4.80
2017,04,08,15,28,6.40
2017,04,08,15,29,11.30
2017,04,08,15,30,3.20
2017,04,08,15,31,4.80
2017,04,08,15,32,4.80
2017,04,08,15,33,9.60
2017,04,08,15,34,8.10
2017,04,08,15,35,1.60
2017,04,08,15,36,6.40
2017,04,08,15,37,4.80
2017,04,08,15,38,8.10
2017,04,08,15,39,3.20
2017,04,08,15,40,6.40
2017,04,08,15,41,6.40
2017,04,08,15,42,12.90
2017,04,08,15,43,9.60
2017,04,08,15,44,9.60
2017,04,08,15,45,12.90
2017,04,08,15,46,11.30
2017,04,08,15,47,9.60
2017,04,08,15,48,9.60
2017,04,08,15,49,16.10
2017,04,08,15,50,20.90
2017,04,08,15,51,16.10
2017,04,08,15,52,9.60
2017,04,08,15,53,16.10
2017,04,08,15,54,16.10
2017,04,08,15,55,11.30
2017,04,08,15,56,14.50
2017,04,08,15,57,8.10
2017,04,08,15,58,4.80
2017,04,08,15,59,12.90
2017,04,08,16,00,19.30
2017,04,08,16,01,17.70
2017,04,08,16,02,14.50
2017,04,08,16,03,14.50
2017,04,08,16,04,19.30
2017,04,08,16,05,17.70
2017,04,08,16,06,17.70
2017,04,08,16,07,14.50
2017,04,08,16,08,12.90
2017,04,08,16,09,14.50
2017,04,08,16,10,12.90
2017,04,08,16,11,11.30
2017,04,08,16,12,16.10
2017,04,08,16,13,12.90
2017,04,08,16,14,14.50
2017,04,08,16,15,19.30
2017,04,08,16,16,12.90
2017,04,08,16,17,24.20
2017,04,08,16,18,22.50
2017,04,08,16,19,20.90
2017,04,08,16,20,16.10
2017,04,08,16,21,19.30
2017,04,08,16,22,22.50
2017,04,08,16,23,24.20
2017,04,08,16,24,25.70
2017,04,08,16,25,22.50
2017,04,08,16,26,22.50
2017,04,08,16,27,24.20
2017,04,08,16,28,17.70
2017,04,08,16,29,17.70
2017,04,08,16,30,17.70
2017,04,08,16,31,22.50
2017,04,08,16,32,27.40
2017,04,08,16,33,30.60
2017,04,08,16,34,20.90
2017,04,08,16,35,17.70
2017,04,08,16,36,19.30
2017,04,08,16,37,27.40
2017,04,08,16,38,17.70
2017,04,08,16,39,24.20
2017,04,08,16,40,29.00
2017,04,08,16,41,20.90
2017,04,08,16,42,22.50
2017,04,08,16,43,22.50
2017,04,08,16,44,20.90
2017,04,08,16,45,25.70
2017,04,08,16,46,24.20
2017,04,08,16,47,24.20
2017,04,08,16,48,24.20
2017,04,08,16,49,17.70
2017,04,08,16,50,17.70
2017,04,08,16,51,16.10
2017,04,08,16,52,22.50
2017,04,08,16,53,24.20
2017,04,08,16,54,25.70
2017,04,08,16,55,22.50
2017,04,08,16,56,22.50
2017,04,08,16,57,20.90
2017,04,08,16,58,27.40
2017,04,08,16,59,20.90
2017,04,08,17,00,25.70
2017,04,08,17,01,25.70
2017,04,08,17,02,20.90
2017,04,08,17,03,24.20
2017,04,08,17,04,24.20
2017,04,08,17,05,22.50
2017,04,08,17,06,27.40
2017,04,08,17,07,25.70
2017,04,08,17,08,27.40
2017,04,08,17,09,24.20
2017,04,08,17,10,22.50
2017,04,08,17,11,20.90
2017,04,08,17,12,20.90
2017,04,08,17,13,19.30
2017,04,08,17,14,22.50
2017,04,08,17,15,29.00
2017,04,08,17,16,32.20
2017,04,08,17,17,29.00
2017,04,08,17,18,24.20
2017,04,08,17,19,22.50
2017,04,08,17,20,22.50
2017,04,08,17,21,27.40
2017,04,08,17,22,27.40
2017,04,08,17,23,24.20
2017,04,08,17,24,29.00
2017,04,08,17,25,27.40
2017,04,08,17,26,25.70
2017,04,08,17,27,22.50
2017,04,08,17,28,24.20
2017,04,08,17,29,20.90
2017,04,08,17,30,24.20
2017,04,08,17,31,24.20
2017,04,08,17,32,24.20
2017,04,08,17,33,24.20
2017,04,08,17,34,25.70
2017,04,08,17,35,22.50
2017,04,08,17,36,20.90
2017,04,08,17,37,22.50
2017,04,08,17,38,22.50
2017,04,08,17,39,24.20
2017,04,08,17,40,25.70
2017,04,08,17,41,24.20
2017,04,08,17,42,25.70
2017,04,08,17,43,24.20
2017,04,08,17,44,24.20
2017,04,08,17,45,19.30
2017,04,08,17,46,19.30
2017,04,08,17,47,20.90
2017,04,08,17,48,19.30
2017,04,08,17,49,20.90
2017,04,08,17,50,22.50
2017,04,08,17,51,20.90
2017,04,08,17,52,22.50
2017,04,08,17,53,22.50
2017,04,08,17,54,24.20
2017,04,08,17,55,30.60
2017,04,08,17,56,29.00
2017,04,08,17,57,29.00
2017,04,08,17,58,24.20
2017,04,08,17,59,19.30
2017,04,08,18,00,22.50
2017,04,08,18,01,29.00
2017,04,08,18,02,24.20
2017,04,08,18,03,25.70
2017,04,08,18,04,25.70
2017,04,08,18,05,30.60
2017,04,08,18,06,25.70
2017,04,08,18,07,24.20
2017,04,08,18,08,22.50
2017,04,08,18,09,25.70